This is the latest recevied weather packets stored in our database for station/object OK1UOJ. If no packets are shown the sender has not sent any weather packets the latest 1 day(s).
| Time | Temp. | Humidity | Pressure | Rain* | Wind** | Luminosity | Snow |
|---|---|---|---|---|---|---|---|
| 1836274661 | 14.44° C | 10% | - | - | 2.68 m/s, 129° | - | - |
| 1836274656 | 14.44° C | 10% | - | - | 2.68 m/s, 129° | - | - |
| 1836274466 | 14.44° C | 10% | - | - | 2.68 m/s, 138° | - | - |
| 1836274466 | 14.44° C | 10% | - | - | 2.68 m/s, 138° | - | - |
| 1836274461 | 14.44° C | 10% | - | - | 2.68 m/s, 138° | - | - |
| 1836274383 | 14.44° C | 10% | - | - | 2.68 m/s, 132° | - | - |
| 1836274379 | 14.44° C | 10% | - | - | 2.68 m/s, 132° | - | - |
| 1836274188 | 14.44° C | 10% | - | - | 2.68 m/s, 129° | - | - |
| 1836274184 | 14.44° C | 10% | - | - | 2.68 m/s, 129° | - | - |
| 1836274106 | 14.44° C | 10% | - | - | 2.24 m/s, 135° | - | - |
| 1836274101 | 14.44° C | 10% | - | - | 2.24 m/s, 135° | - | - |
| 1778031894 | 12.78° C | 10% | - | - | 0.89 m/s, 225° | - | - |
| 1778031889 | 12.78° C | 10% | - | - | 0.89 m/s, 225° | - | - |
| 1778031617 | 12.78° C | 10% | - | - | 0.89 m/s, 225° | - | - |
| 1778031612 | 12.78° C | 10% | - | - | 0.89 m/s, 225° | - | - |
| 1778031334 | 13.33° C | 10% | - | - | 0.45 m/s, 242° | - | - |
| 1778031057 | 13.33° C | 10% | - | - | 1.34 m/s, 328° | - | - |
| 1778030502 | 13.33° C | 10% | - | - | 0.45 m/s, 307° | - | - |
| 1778030229 | 13.33° C | 10% | - | - | 0.45 m/s, 255° | - | - |
| 1778030224 | 13.33° C | 10% | - | - | 0.45 m/s, 255° | - | - |
| 1778029947 | 13.33° C | 10% | - | - | 0 m/s | - | - |
| 1778029674 | 13.33° C | 10% | - | - | 0 m/s | - | - |
| 1778029669 | 13.33° C | 10% | - | - | 0 m/s | - | - |
| 1778029397 | 13.33° C | 10% | - | - | 0.45 m/s, 289° | - | - |
| 1778029392 | 13.33° C | 10% | - | - | 0.45 m/s, 289° | - | - |
* Rain since midnight (hover to see other rain measurements)
** Current wind speed in m/s (hover to see current wind gust speed)